Location: Dehesa de la Cepeda
(40.6574°N, 4.3013°W)
Time: 04:28:48
(UTC+00:00)

Cosmos 1680 Rocket - Pass Details

Date: 05 July 2020
Orbit: 760 x 781 km, 74.1° (Epoch: 11 August)

Event Time Altitude Azimuth Distance (km) Brightness Sun altitude
Exits shadow 23:15:56 42° 234° (SW) 1,096 4.1 -24.8°
Maximum altitude 23:17:29 60° 292° (WNW) 890 3.9 -24.9°
Drops below altitude 10° 23:22:45 10° 12° (NNE) 2,343 6.8 -25.2°
Sets 23:25:12 0° 16° (NNE) 3,275 7.7 -25.3°
